Погода Ворогово

Погода Ворогово : погода сейчас, прогноз погоды и архив. Всё, что Вы хотите узнать о погоде Ворогово!

Хотите узнать прогноз погоды Ворогово? Тогда Вам сюда: Погода Ворогово

Поиск расширенной информации на нашем сайте:

Другие новости

Новости СМИ2

Главная страница сайта

Новости сайта

03.07.2017

Напоминаем, что на нашем специализированном сайте Метеоцентр.Азия вы можете получить высокодетализированные автоматические прогнозы погоды по пунктам России, СНГ и мира в авиационном формате (включающие направление и скорость ветра, видимость, явления погоды, количество и форму облачности, нижнюю и верхнюю границу облачности).

Рекомендуем: срочно снять финскую сауну

Погода Ворогово - сегодня

Время (UTC), дата Ветер
(°,м/с) 
Видим.   Явления Облачность Т
(°С)
Тd
(°С)
f(%) Тe
(°С)
Pmin
(гПа)
dP
(гПа)
Po
(мм)
O2
(г/м3)
Тmin Tmax R s Состояние
почвы
03 09.12.17 200 (Ю) н/о    н/о 
-12.6 -13.9 90 -15  1033.8  -0.2  770  327           
06 09.12.17 200 (Ю) н/о    н/о 
-11.4 -12.8 89 -13  1033.5  -0.3  770  325           
09 09.12.17 тихо ()   н/о    н/о 
-10.7 -12.1 89 -11  1033.7  0.3  770  324           
12 09.12.17 150 (ЮВ) н/о    н/о 
-9.7 -10.8 92 -11  1033.2  -0.5  770  323    -9.7  0.0     
15 09.12.17 160 (Ю) н/о    н/о 
-12.5 -13.8 90 -15  1033  -0.3  770  326           
18 09.12.17 130 (ЮВ) н/о    н/о 
-13 -14.4 89 -15  1032.2  -0.7  769  327           
21 09.12.17 130 (ЮВ) н/о    н/о 
-11.3 -12.7 89 -13  1031.7  -0.5  769  324           
00 10.12.17 120 (ЮВ) н/о    н/о 
-11 -12.8 87 -14  1030.8  -0.9  768  324  -14.3      48  равномерный
сухой снег
100% 
03 10.12.17 150 (ЮВ) н/о    н/о 
-10.7 -12.2 89 -13  1029.9  -0.9  768  323           
06 10.12.17 120 (ЮВ) н/о    н/о 
-9.6 -11.5 86 -11  1029.5  -0.4  767  322           
09 10.12.17 120 (ЮВ) н/о    н/о 
-12.1 -13.9 86 -12  1029.2  -0.4  767  325           
12 10.12.17 310 (СЗ) н/о    н/о 
-17.6 -18.9 90 -18  1028.7  -0.6  767  332    -8.8       
15 10.12.17 тихо ()   н/о    н/о 
-18.2 -20.1 85 -18  1028  -0.8  766  332           
18 10.12.17 190 (Ю) н/о    н/о 
-12.8 -16.2 76 -17  1028.4  0.6  766  325           
00 11.12.17 190 (Ю) н/о    н/о 
-13.5 -15.9 82 -18  1028.7  767  326      0.0  48  равномерный
сухой снег
100% 
03 11.12.17 180 (Ю) н/о    н/о 
-14.9 -17.3 82 -20  1029.2  0.4  767  328           
06 11.12.17 190 (Ю) н/о    н/о 
-15.5 -18.1 80 -19  1029.7  0.5  767  329           
09 11.12.17 190 (Ю) н/о    н/о 
-15.5 -18.1 80 -19  1029.6  -0.2  767  329           
12 11.12.17 180 (Ю) н/о    н/о 
-16 -18.8 79 -20  1029.9  0.3  767  330    -13.5  0.2     
15 11.12.17 190 (Ю) н/о    н/о 
-16.4 -19 80 -20  1029.1  -0.8  767  330           
18 11.12.17 180 (Ю) н/о    н/о 
-16.2 -18.6 82 -20  1028.8  -0.4  767  330           
21 11.12.17 180 (Ю) н/о    н/о 
-16 -18.2 83 -20  1027.9  -0.9  766  329           
00 12.12.17 180 (Ю) н/о    н/о 
-15.7 -17.7 85 -19  1027  -0.8  765  329  -16.5    0.7  49  равномерный
сухой снег
100% 
03 12.12.17 190 (Ю) н/о    н/о 
-15.7 -17.6 85 -18  1026.7  -0.3  765  329           
06 12.12.17 200 (Ю) н/о    н/о 
-16.4 -18.4 84 -17  1026.7  765  329           
Время (UTC), дата Ветер
(°,м/с) 
Видим.   Явления Облачность Т
(°С)
Тd
(°С)
f(%) Тe
(°С)
Pmin
(гПа)
dP
(гПа)
Po
(мм)
O2
(г/м3)
Тmin Tmax R s Состояние
почвы

Для получения пояснительной информации подведите курсор к названию столбца.

ПОГОДА Ворогово - архив

Всё, что Вы хотите узнать о погоде Ворогово - удобно и подробно!

Выберите нужную дату (начиная с 1 января 2015* года) и нажмите кнопку "Найти".
Будут отображены архивные сводки погоды по пункту Ворогово, начиная с указанной даты.


Отображать данные в формате CSV (для использования в таблицах Excel)


Внимание! Наш архив погоды предназначен исключительно для личного некоммерческого использования в познавательных целях. Если Вам необходимы официальные справки о состоянии погоды (для производственных, юридических, коммерческих и т.п. целей), обращайтесь в органы Росгидромета.

*Примечание: данная дата относится к архиву по метеостанциям СССР (Россия, СНГ, Балтия).
Архив по метеостанциям Зарубежной Европы и Азии (кроме Китая) хранится 10 дней, по другим регионам земного шара (Китай, Африка, Америка, Австралия, Океания) - 1 день.

Ворогово - район местоположения метеостанции


Название, широта, долгота, высота метеостанции:
Ворогово 61°ш. 89.6°д. 49 м над ур. моря [Российская Федерация]

Дополнительная информация

В oтличие oт бoльшинства пoгoдных сайтoв мы публикуем пoдрoбную метеoинфoрмацию в детальнoм прoфессиoнальнoм фoрмате.

Характеристики температуры и влажнoсти вoздуха измеряются на высoте 2 м в тени вдали oт зданий и деревьев.
Скoрoсть ветра измеряется на высoте 10 м (на урoвне рoста челoвека скoрoсть ветра ниже в 1.5-2 раза). Если метеoстанция нахoдится в гoрoде или в лесу, тo скoрoсть ветра занижена на 2-4 м/с пo сравнению с oткрытым местoм. Скoрoсть ветра над акватoриями крупных рек и oзёр, а также на вершинах хoлмoв на 2-5 м/с выше, чем в oбычных услoвиях.
Атмoсфернoе давление в разных тoчках местнoсти мoжет значительнo oтличаться oт давления на метеoстанции, в зависимoсти oт услoвий рельефа (при пoдъёме на 10 м давление пoнижается примернo на 1 мм рт.ст.).